Weather History for KBIX - November, 2010

Change the Weather History Date:

Saturday, November 6, 2010

  Actual Average (KPQL) Record (KPQL)
Temperature  
Mean Temperature 52 °F -  
Max Temperature 63 °F 71 °F - (-1)
Min Temperature 41 °F 48 °F - (-1)
Degree Days  
Heating Degree Days 13    
Growing Degree Days 2 (Base 50)    
Moisture  
Dew Point 29 °F    
Average Humidity 47    
Maximum Humidity 73    
Minimum Humidity 20    
Precipitation  
Precipitation 0.00 in - - ()
Sea Level Pressure  
Sea Level Pressure 30.34 in    
Wind  
Wind Speed 8 mph (North)    
Max Wind Speed 13 mph    
Max Gust Speed -    
Visibility 10 miles    
Events      
Averages and records for this station are not official NWS values.
T = Trace of Precipitation, MM = Missing Value Source: NWS Daily Summary

Daily Weather History Graph

Daily Weather History Graph

Search for Another Location

Airport or City:

Trip Planner

Search our weather history database for the weather conditions in past years. The results will help you decide how hot, cold, wet, or windy it might be!

Date:

Astronomy

Nov. 06, 2010 Rise Set
Actual Time 7:14 AM CDT 6:04 PM CDT
Civil Twilight 6:49 AM CDT 6:29 PM CDT
Nautical Twilight 6:20 AM CDT 6:57 PM CDT
Astronomical Twilight 5:52 AM CDT 7:26 PM CDT
Moon 7:43 AM CDT (11/6) 6:20 PM CDT (11/6)
Length of Visible Light 11h 40m
Length of Day
10h 50m
New Moon, 0% of the Moon is Illuminated
Nov 6
New Moon
Nov 13
First Quarter
Nov 21
Full
Nov 28
Last Quarter
Dec 5
New

Hourly Weather History & Observations

Time (CDT) Temp. Windchill Dew Point Humidity Pressure Visibility Wind Dir Wind Speed Gust Speed Precip Events Conditions
12:55 AM 46.8 °F - 32.4 °F 57% 30.25 in 10.0 mi NNW 8.1 mph - N/A   Clear
1:55 AM 45.0 °F 40.1 °F 33.1 °F 63% 30.27 in 10.0 mi North 9.2 mph - N/A   Clear
2:55 AM 43.9 °F 39.3 °F 33.4 °F 67% 30.27 in 10.0 mi North 8.1 mph - N/A   Clear
3:55 AM 43.7 °F 39.7 °F 33.6 °F 68% 30.27 in 10.0 mi North 6.9 mph - N/A   Clear
4:55 AM 42.8 °F 38.0 °F 33.1 °F 69% 30.28 in 10.0 mi North 8.1 mph - N/A   Clear
5:55 AM 42.3 °F 37.9 °F 34.0 °F 72% 30.30 in 10.0 mi NNW 6.9 mph - N/A   Clear
6:55 AM 41.5 °F 37.8 °F 33.6 °F 73% 30.32 in 10.0 mi NNW 5.8 mph - N/A   Clear
7:55 AM 42.4 °F 39.6 °F 34.2 °F 72% 30.35 in 10.0 mi NW 4.6 mph - N/A   Clear
8:55 AM 46.8 °F - 32.2 °F 57% 30.38 in 10.0 mi North 5.8 mph - N/A   Clear
9:55 AM 52.3 °F - 29.1 °F 41% 30.38 in 10.0 mi North 6.9 mph - N/A   Clear
10:55 AM 55.9 °F - 26.6 °F 32% 30.39 in 10.0 mi North 9.2 mph - N/A   Clear
11:55 AM 57.9 °F - 24.6 °F 28% 30.38 in 10.0 mi North 10.4 mph - N/A   Clear
12:55 PM 59.4 °F - 22.8 °F 25% 30.34 in 10.0 mi North 10.4 mph - N/A   Clear
1:55 PM 61.5 °F - 20.8 °F 21% 30.32 in 10.0 mi North 10.4 mph - N/A   Clear
2:55 PM 63.1 °F - 22.8 °F 21% 30.30 in 10.0 mi NNW 10.4 mph - N/A   Clear
3:55 PM 62.6 °F - 20.1 °F 20% 30.30 in 10.0 mi NNW 10.4 mph - N/A   Clear
4:55 PM 61.5 °F - 21.4 °F 21% 30.31 in 10.0 mi North 12.7 mph - N/A   Clear
5:55 PM 58.6 °F - 23.5 °F 26% 30.32 in 10.0 mi North 6.9 mph - N/A   Clear
6:55 PM 55.2 °F - 28.6 °F 36% 30.34 in 10.0 mi North 4.6 mph - N/A   Clear
7:55 PM 53.2 °F - 29.7 °F 40% 30.36 in 10.0 mi North 4.6 mph - N/A   Clear
8:55 PM 50.2 °F - 33.1 °F 52% 30.38 in 10.0 mi North 4.6 mph - N/A   Clear
9:55 PM 49.5 °F - 32.9 °F 53% 30.40 in 10.0 mi NNE 5.8 mph - N/A   Clear
10:55 PM 46.6 °F - 32.2 °F 57% 30.42 in 10.0 mi NNE 4.6 mph - N/A   Clear
11:55 PM 44.4 °F 42.0 °F 32.0 °F 62% 30.43 in 10.0 mi NNE 4.6 mph - N/A   Clear